Regional Weather Roundup
Issued by NWS Mt. Holly, NJ

Home | Current Version | Previous Version | Text Only | Print | Product List | Glossary On
Versions: 1 2 3 4 5 6 7 8 9 10 11 12 13 14 15 16 17 18 19 20 21 22 23 24 25 26 27 28 29 30 31 32 33 34 35 36 37 38 39 40 41 42 43 44 45 46 47 48 49 50
000
ASUS41 KPHI 200710
RWRPHI

REGIONAL WEATHER ROUNDUP
NATIONAL WEATHER SERVICE MOUNT HOLLY NJ
300 AM EDT WED AUG 20 2014

NOTE:  "FAIR" INDICATES FEW OR NO CLOUDS BELOW 12,000 FEET WITH NO
SIGNIFICANT WEATHER AND/OR OBSTRUCTIONS TO VISIBILITY.

 * = STATION DOES NOT REPORT PRECIPITATION (E.G. RAIN, SNOW, ETC.)
        OR FOG.

NJZ015>026-200800-
SOUTHERN NEW JERSEY

CITY           SKY/WX    TMP DP  RH WIND       PRES   REMARKS
POMONA         MOCLDY    65  63  93 N3        29.93S
RIO GRANDE*    PTCLDY    66  61  82 CALM      29.93S
MILLVILLE      MOCLDY    67  64  90 CALM      29.93S
WRIGHTSTOWN    MOCLDY    65  62  93 CALM      29.92S
MOUNT HOLLY    MOCLDY    66  63  90 CALM      29.94S
TRENTON        MOCLDY    68  62  81 CALM      29.94S

$$
NJZ001>014-200800-
NORTHERN NEW JERSEY

CITY           SKY/WX    TMP DP  RH WIND       PRES   REMARKS
SUSSEX         MOCLDY    65  61  87 CALM      29.95S
ANDOVER*         N/A     64  63  96 CALM      29.96S
MORRISTOWN     CLOUDY    63  59  88 CALM      29.96R
NEWARK         PTCLDY    70  65  84 W5        29.95R
TETERBORO      CLEAR     69  63  81 CALM      29.94R
CALDWELL       CLOUDY    65  61  87 CALM      29.96R
SOMERVILLE     CLOUDY    66  62  87 CALM      29.93R
ALLAIRE*       MOCLDY    64  57  77 NW5       29.95R
TOMS RIVER*    MOCLDY    63  59  88 CALM      29.95R

$$
PAZ043-044-047-054-055-060>062-066>071-200800-
EASTERN PENNSYLVANIA

CITY           SKY/WX    TMP DP  RH WIND       PRES   REMARKS
PHILADELPHIA   CLOUDY    73  64  73 S3        29.93F
NORTH PHILA    MOCLDY    71  62  73 E6        29.95F
BLUE BELL      MOCLDY    70  64  83 CALM      29.93S
DOYLESTOWN     CLOUDY    68  63  84 CALM      29.94S
QUAKERTOWN*    MOCLDY    68  64  88 CALM      29.96R
POTTSTOWN      CLOUDY    68  63  84 CALM      29.96R
LANCASTER      MOCLDY    69  60  73 SE3       29.94S
COATESVILLE    CLOUDY    68  66  94 CALM      29.96R
READING        PTCLDY    71  62  73 CALM      29.93S
ALLENTOWN      MOCLDY    71  63  75 SW3       29.94S
MOUNT POCONO   CLEAR     63  60  90 CALM      29.99R
HAZLETON       PTCLDY    63  61  94 CALM      30.00S
WILKES BARRE   CLEAR     67  61  81 E3        29.94S

$$
DEZALL-MDZ008-012-015-019-020-200800-
DELAWARE AND EASTERN MARYLAND

CITY           SKY/WX    TMP DP  RH WIND       PRES   REMARKS
WILMINGTON     CLOUDY    72  66  81 VRB3      29.94S
DOVER          CLEAR     65  64  97 N3        29.91S
GEORGETOWN     CLEAR     65  62  90 VRB5      29.92F
EASTON         CLEAR     66  66 100 CALM      29.96S
PATUXENT       CLEAR     68  64  87 E5        29.91S
OCEAN CITY     CLEAR     73  65  75 E8        29.90F
WALLOPS ISLAND CLEAR     73  66  78 E10       29.90S
CAMBRIDGE      CLEAR     63  61  94 CALM      29.91S
SALISBURY      CLEAR     67  62  84 CALM      29.91S

$$
PAZ001-021-NYZ056-072-MDZ011-DCZ001-200800-
OTHER NEARBY LOCATIONS

CITY           SKY/WX    TMP DP  RH WIND       PRES   REMARKS
HARRISBURG     MOCLDY    71  65  81 SE3       29.92S
STATE COLLEGE  CLOUDY    64  63  98 CALM      29.93F FOG
WILLIAMSPORT   PTCLDY    65  61  87 CALM      29.91S
BINGHAMTON     CLEAR     64  61  90 S5        29.95S
NEW YORK CITY  PTCLDY    70  63  78 CALM      29.98R
BALTIMORE      PTCLDY    66  63  90 CALM      29.92F
WASHINGTON DC  PTCLDY    74  64  71 S3        29.93S

$$



USA.gov is the U.S. government's official web portal to all federal, state and local government web resources and services.